Location: Lincoln Park
(32.7042°N, 117.0895°W)
Time: 12:29:22
(UTC+00:00)

CZ-4C R/B - Pass Details

Date: 26 June 2022
Orbit: 460 x 625 km, 98.1° (Epoch: 14 August)

Event Time Altitude Azimuth Distance (km) Brightness Sun altitude
Rises 12:09:32 0° 163° (SSE) 2,837 6.8 -6.8°
Reaches altitude 10° 12:11:40 10° 162° (SSE) 1,955 6.0 -6.4°
Maximum altitude 12:15:56 77° 76° (ENE) 640 3.8 -5.6°
Drops below altitude 10° 12:20:19 10° 351° (N) 2,005 6.5 -4.8°
Sets 12:22:32 0° 350° (N) 2,916 7.3 -4.4°
